Simultaneous Nadir Overpasses (SNOs) Predictions

Prediction of SNOs between AQUA and METOP-A Satellite Orbit:

Table of predicted SNOs for the next 14.0 days since TLE Epoch: 11/17/2017
Index Date (AQUA) Time (AQUA) Lat,Lon (AQUA) SZA (AQUA ) Date (METOP-A) Time (METOP-A) Lat,Lon (METOP-A) SZA (METOP-A ) Distance(km) Time Diff (sec)
1 11/19/2017 06:14:35 -74.03, -99.93 86.54 11/19/2017 06:14:02 -74.02, -99.92 86.55 1.70 33
2 11/19/2017 07:04:03 74.08, 67.59 93.53 11/19/2017 07:04:40 74.10, 67.61 93.54 1.75 37
3 11/22/2017 01:48:51 -74.02, -33.47 85.92 11/22/2017 01:48:20 -74.04, -33.44 85.89 2.58 31
4 11/22/2017 02:38:19 74.08, 134.04 94.15 11/22/2017 02:38:59 74.07, 133.96 94.15 2.53 40
5 11/24/2017 21:23:06 -74.02, 32.96 85.33 11/24/2017 21:22:38 -74.02, 32.91 85.34 1.81 28
6 11/24/2017 22:12:34 74.09,-159.54 94.74 11/24/2017 22:13:16 74.09,-159.58 94.75 1.62 42
7 11/27/2017 16:57:22 -74.04, 99.37 84.79 11/27/2017 16:56:56 -74.04, 99.37 84.78 0.51 26
8 11/27/2017 17:46:50 74.10, -93.13 95.29 11/27/2017 17:47:34 74.11, -93.13 95.29 0.98 44
9 11/30/2017 12:31:38 -74.06, 165.76 84.29 11/30/2017 12:31:14 -74.06, 165.82 84.29 1.95 24
10 11/30/2017 13:21:06 74.13, -26.75 95.79 11/30/2017 13:21:52 74.12, -26.69 95.78 1.98 46




NCC Satellite Simultaneous Nadir Overpasses (SNOs) Prediction Service
